Location: *
(48.8667°N, 2.3331°E)
Time: 06:32:36
(UTC+00:00)

Envisat - Visible Passes

Search period start: 04 March 2021 00:00
Search period end: 14 March 2021 00:00
Orbit: 764 x 766 km, 98.1° (Epoch: 03 March)

Date Brightness Start Highest point End Pass type
(mag) Time Alt. Az. Time Alt. Az. Time Alt. Az.
04 Mar 5.8 04:23:59 10° NE 04:27:34 19° E 04:31:07 10° SE visible
05 Mar 3.6 05:25:10 10° NNE 05:30:14 62° ESE 05:35:16 10° S visible
06 Mar 5.0 04:48:43 10° NNE 04:53:13 31° E 04:57:41 10° SSE visible
07 Mar 6.0 04:13:02 10° NE 04:15:59 15° E 04:18:55 10° ESE visible
08 Mar 4.0 05:13:48 10° NNE 05:18:46 50° E 05:23:41 10° S visible
08 Mar 6.6 18:14:50 10° WSW 18:17:02 13° W 18:19:15 10° WNW visible
09 Mar 5.4 04:37:30 10° NE 04:41:41 25° E 04:45:50 10° SSE visible
10 Mar 6.2 04:02:25 10° ENE 04:04:24 12° E 04:06:22 10° ESE visible
10 Mar 3.2 05:39:06 10° NNE 05:44:14 83° ESE 05:49:19 10° SSW visible
11 Mar 4.5 05:02:28 10° NNE 05:07:17 40° E 05:12:03 10° SSE visible
12 Mar 5.7 04:26:23 10° NE 04:30:08 20° E 04:33:52 10° SE visible
13 Mar 3.5 05:27:41 10° NNE 05:32:47 67° ESE 05:37:49 10° S visible
